,,PA_Meas_PMT16A,,PR_Meas_QMR101_102,,RH_Meas_QMH101,,SR_Meas_QMS101,,TA_Meas_QMH101,,GenWind,,GenWind,
time,status,PA,status,PR,status,RH,status,SR,status,TA,status,DirAvg,status,SpdAvg,
2013-03-15, 08:37:04,INVALID - VALUE NOT AVAILABLE,0,INVALID - VALUE NOT AVAILABLE,0,INVALID - VALUE NOT AVAILABLE,0,INVALID - VALUE NOT AVAILABLE,0,INVALID - VALUE NOT AVAILABLE,0,INVALID,360,INVALID,0,
2013-03-15, 09:17:04,VALID,921.27,VALID,0,VALID,96.4591,VALID,140.426,VALID,19.6263,VALID,167,VALID,0,
2013-03-15, 09:18:04,VALID,921.218,VALID,0,VALID,96.3752,VALID,144.831,VALID,19.6458,VALID,134,VALID,0,
2013-03-15, 09:19:04,VALID,921.26,VALID,0,VALID,96.3295,VALID,149.236,VALID,19.6848,VALID,135,VALID,0,
2013-03-15, 09:20:04,VALID,921.216,VALID,0,VALID,96.2837,VALID,153.748,VALID,19.7238,VALID,140,VALID,0,
2013-03-15, 09:21:04,VALID,921.428,VALID,0,VALID,96.2304,VALID,158.905,VALID,19.7628,VALID,129,VALID,0,
2013-03-15, 09:22:04,VALID,921.142,VALID,0,VALID,96.1389,VALID,164.17,VALID,19.7433,VALID,129,VALID,0,
2013-03-15, 09:23:04,VALID,921.251,VALID,0,VALID,95.8111,VALID,170.187,VALID,19.7628,VALID,120,VALID,0,
2013-03-15, 09:24:04,VALID,921.246,VALID,0,VALID,95.9026,VALID,176.203,VALID,19.8603,VALID,145,VALID,0,
2013-03-15, 09:25:04,VALID,921.454,VALID,0,VALID,95.7044,VALID,183.08,VALID,19.8993,VALID,145,VALID,0,
2013-03-15, 09:26:04,VALID,921.258,VALID,0,VALID,95.6357,VALID,190.493,VALID,19.8993,VALID,166,VALID,0,
2013-03-15, 09:27:04,VALID,921.143,VALID,0,VALID,95.6739,VALID,198.444,VALID,19.9593,VALID,175,VALID,0,
2013-03-15, 09:28:04,VALID,921.12,VALID,0,VALID,95.6053,VALID,206.394,VALID,19.9398,VALID,149,VALID,0,
2013-03-15, 09:29:04,VALID,920.984,VALID,0,VALID,95.3308,VALID,214.238,VALID,19.9383,VALID,148,VALID,0,
2013-03-15, 09:30:04,VALID,921.141,VALID,0,VALID,95.3994,VALID,220.792,VALID,19.9968,VALID,143,VALID,0,
2013-03-15, 09:31:04,VALID,921.152,VALID,0,VALID,95.3461,VALID,225.949,VALID,20.0569,VALID,139,VALID,0,
2013-03-15, 09:32:04,VALID,921.292,VALID,0,VALID,95.064,VALID,229.494,VALID,20.0553,VALID,194,VALID,0,
2013-03-15, 09:33:04,VALID,921.144,VALID,0,VALID,94.9268,VALID,232.718,VALID,20.0944,VALID,159,VALID,0,
2013-03-15, 09:34:04,VALID,921.111,VALID,0,VALID,95.003,VALID,234.974,VALID,20.1334,VALID,130,VALID,0,
2013-03-15, 09:35:04,VALID,921.109,VALID,0,VALID,94.7362,VALID,235.618,VALID,20.1139,VALID,161,VALID,0,
2013-03-15, 09:36:04,VALID,921.269,VALID,0,VALID,94.7896,VALID,237.123,VALID,20.1334,VALID,146,VALID,0,
2013-03-15, 09:37:04,VALID,921.221,VALID,0,VALID,94.8582,VALID,239.057,VALID,20.1724,VALID,161,VALID,0,
2013-03-15, 09:38:04,VALID,921.025,VALID,0,VALID,94.9268,VALID,241.743,VALID,20.2309,VALID,96,VALID,0,
2013-03-15, 09:39:04,VALID,921.109,VALID,0,VALID,94.8887,VALID,244.644,VALID,20.2699,VALID,120,VALID,0,
2013-03-15, 09:40:04,VALID,921.101,VALID,0,VALID,95.0183,VALID,247.222,VALID,20.3284,VALID,148,VALID,0,
2013-03-15, 09:41:04,VALID,921.114,VALID,0,VALID,94.9801,VALID,250.23,VALID,20.3269,VALID,163,VALID,0,
2013-03-15, 09:42:04,VALID,921.015,VALID,0,VALID,94.7514,VALID,252.487,VALID,20.3674,VALID,135,VALID,0,
2013-03-15, 09:43:04,VALID,921.233,VALID,0,VALID,94.477,VALID,255.925,VALID,20.3869,VALID,118,VALID,0,
2013-03-15, 09:44:04,VALID,921.091,VALID,0,VALID,94.3474,VALID,258.503,VALID,20.4064,VALID,110,VALID,0,
2013-03-15, 09:45:04,VALID,921.167,VALID,0,VALID,94.0806,VALID,260.33,VALID,20.4454,VALID,165,VALID,0,
2013-03-15, 09:46:04,VALID,921.01,VALID,0,VALID,93.6689,VALID,263.338,VALID,20.4454,VALID,130,VALID,0,
2013-03-15, 09:47:04,VALID,921.13,VALID,0,VALID,93.7909,VALID,266.132,VALID,20.4845,VALID,161,VALID,0,
2013-03-15, 09:48:04,VALID,921.07,VALID,0,VALID,93.8824,VALID,270.215,VALID,20.4829,VALID,164,VALID,0,
2013-03-15, 09:49:04,VALID,921.113,VALID,0,VALID,93.6689,VALID,275.264,VALID,20.504,VALID,150,VALID,0,
2013-03-15, 09:50:04,VALID,921.117,VALID,0,VALID,93.89,VALID,280.744,VALID,20.5625,VALID,144,VALID,0,
2013-03-15, 09:51:04,VALID,921.063,VALID,0,VALID,93.3868,VALID,287.835,VALID,20.5414,VALID,139,VALID,0,
2013-03-15, 09:52:04,VALID,920.92,VALID,0,VALID,93.2496,VALID,294.389,VALID,20.621,VALID,138,VALID,0,
2013-03-15, 09:53:04,VALID,921.001,VALID,0,VALID,93.2344,VALID,301.158,VALID,20.66,VALID,144,VALID,0,
2013-03-15, 09:54:04,VALID,921.211,VALID,0,VALID,93.0285,VALID,305.455,VALID,20.6795,VALID,169,VALID,0,
2013-03-15, 09:55:04,VALID,921.068,VALID,0,VALID,93.768,VALID,307.497,VALID,20.7966,VALID,179,VALID,0,
2013-03-15, 09:56:04,VALID,920.984,VALID,0,VALID,94.2559,VALID,305.563,VALID,20.873,VALID,175,VALID,0,
2013-03-15, 09:57:04,VALID,921.028,VALID,0,VALID,93.7375,VALID,303.306,VALID,20.873,VALID,112,VALID,0,
2013-03-15, 09:58:04,VALID,920.959,VALID,0,VALID,92.9294,VALID,300.943,VALID,20.873,VALID,115,VALID,0,
2013-03-15, 09:59:04,VALID,921.119,VALID,0,VALID,93.1505,VALID,298.042,VALID,20.9722,VALID,124,VALID,0,
2013-03-15, 10:00:04,VALID,921.133,VALID,0,VALID,93.0743,VALID,296.43,VALID,21.0307,VALID,139,VALID,0,
2013-03-15, 10:01:04,VALID,921.042,VALID,0,VALID,92.9218,VALID,294.711,VALID,21.0892,VALID,137,VALID,0,
2013-03-15, 10:02:04,VALID,920.944,VALID,0,VALID,91.8469,VALID,294.066,VALID,21.0291,VALID,143,VALID,0,
2013-03-15, 10:03:04,VALID,920.889,VALID,0,VALID,92.0451,VALID,294.066,VALID,21.0892,VALID,118,VALID,0,
2013-03-15, 10:04:04,VALID,920.85,VALID,0,VALID,92.3806,VALID,295.141,VALID,21.1266,VALID,179,VALID,0,
2013-03-15, 10:05:04,VALID,920.937,VALID,0,VALID,91.6411,VALID,297.505,VALID,21.0681,VALID,118,VALID,0,
2013-03-15, 10:06:04,VALID,920.804,VALID,0,VALID,91.664,VALID,300.943,VALID,21.1071,VALID,141,VALID,0,
2013-03-15, 10:07:04,VALID,920.821,VALID,0,VALID,91.1684,VALID,305.24,VALID,21.0681,VALID,105,VALID,0,
2013-03-15, 10:08:04,VALID,920.878,VALID,0,VALID,91.6182,VALID,310.72,VALID,21.1266,VALID,146,VALID,0,
2013-03-15, 10:09:04,VALID,920.733,VALID,0,VALID,91.3971,VALID,316.737,VALID,21.1461,VALID,162,VALID,0,
2013-03-15, 10:10:04,VALID,920.71,VALID,0,VALID,91.8469,VALID,323.076,VALID,21.1852,VALID,164,VALID,0,
2013-03-15, 10:11:04,VALID,920.897,VALID,0,VALID,91.0007,VALID,330.489,VALID,21.2047,VALID,162,VALID,0,
2013-03-15, 10:12:04,VALID,920.794,VALID,0,VALID,91.2599,VALID,337.902,VALID,21.2632,VALID,186,VALID,0,
2013-03-15, 10:13:04,VALID,921.03,VALID,0,VALID,91.1303,VALID,348.432,VALID,21.3022,VALID,163,VALID,0,
2013-03-15, 10:14:04,VALID,920.871,VALID,0,VALID,91.2142,VALID,360.895,VALID,21.3412,VALID,178,VALID,0,
2013-03-15, 10:15:04,VALID,920.811,VALID,0,VALID,91.0312,VALID,367.341,VALID,21.3803,VALID,157,VALID,0,
2013-03-15, 10:16:04,VALID,920.903,VALID,0,VALID,90.5967,VALID,353.267,VALID,21.3998,VALID,138,VALID,0,
2013-03-15, 10:17:04,VALID,920.806,VALID,0,VALID,91.1608,VALID,347.68,VALID,21.4388,VALID,176,VALID,0,
2013-03-15, 10:18:04,VALID,920.861,VALID,0,VALID,90.65,VALID,341.448,VALID,21.4778,VALID,172,VALID,0,
2013-03-15, 10:19:04,VALID,920.274,VALID,0,VALID,91.0007,VALID,339.836,VALID,21.5363,VALID,199,VALID,0,
2013-03-15, 10:20:04,VALID,920.885,VALID,0,VALID,90.3299,VALID,344.671,VALID,21.5754,VALID,186,VALID,0,
2013-03-15, 10:21:04,VALID,920.795,VALID,0,VALID,89.659,VALID,346.498,VALID,21.5754,VALID,170,VALID,0,
2013-03-15, 10:22:04,VALID,920.794,VALID,0,VALID,89.5294,VALID,343.274,VALID,21.6144,VALID,173,VALID,0,
2013-03-15, 10:23:04,VALID,920.663,VALID,0,VALID,89.1254,VALID,344.134,VALID,21.6339,VALID,115,VALID,0,
2013-03-15, 10:24:04,VALID,920.381,VALID,0,VALID,90.0935,VALID,341.77,VALID,21.6713,VALID,136,VALID,0,
2013-03-15, 10:25:04,VALID,920.725,VALID,0,VALID,91.1379,VALID,340.588,VALID,21.7688,VALID,145,VALID,0,
2013-03-15, 10:26:04,VALID,920.851,VALID,0,VALID,91.2752,VALID,342.845,VALID,21.8859,VALID,179,VALID,0,
2013-03-15, 10:27:04,VALID,920.673,VALID,0,VALID,91.3209,VALID,344.671,VALID,22.003,VALID,179,VALID,0,
2013-03-15, 10:28:04,VALID,920.687,VALID,0,VALID,88.7747,VALID,350.366,VALID,22.0242,VALID,164,VALID,0,
2013-03-15, 10:29:04,VALID,920.595,VALID,0,VALID,88.3706,VALID,360.465,VALID,22.003,VALID,183,VALID,0,
2013-03-15, 10:30:04,VALID,920.595,VALID,0,VALID,87.3643,VALID,389.904,VALID,21.9835,VALID,161,VALID,0,
2013-03-15, 10:31:04,VALID,920.847,VALID,0,VALID,88.0276,VALID,393.772,VALID,22.042,VALID,166,VALID,0,
2013-03-15, 10:32:04,VALID,920.671,VALID,0,VALID,87.7226,VALID,374.647,VALID,22.0242,VALID,169,VALID,0,
2013-03-15, 10:33:04,VALID,920.527,VALID,0,VALID,87.5626,VALID,365.73,VALID,22.0632,VALID,140,VALID,0,
2013-03-15, 10:34:04,VALID,920.6,VALID,0,VALID,89.4227,VALID,359.928,VALID,22.1217,VALID,347,VALID,0,
2013-03-15, 10:35:04,VALID,920.579,VALID,0,VALID,89.4303,VALID,354.556,VALID,22.1803,VALID,30,VALID,0,
2013-03-15, 10:36:04,VALID,920.664,VALID,0,VALID,86.8383,VALID,350.903,VALID,22.1803,VALID,123,VALID,0,
2013-03-15, 10:37:04,VALID,920.663,VALID,0,VALID,86.8307,VALID,351.118,VALID,22.1608,VALID,146,VALID,0,
2013-03-15, 10:38:04,VALID,920.571,VALID,0,VALID,86.7545,VALID,354.233,VALID,22.1608,VALID,40,VALID,0,
2013-03-15, 10:39:04,VALID,920.474,VALID,0,VALID,86.1065,VALID,357.886,VALID,22.1998,VALID,63,VALID,0,
2013-03-15, 10:40:04,VALID,920.604,VALID,0,VALID,86.3047,VALID,362.077,VALID,22.1803,VALID,76,VALID,0,
2013-03-15, 10:41:04,VALID,920.53,VALID,0,VALID,87.9971,VALID,365.085,VALID,22.1998,VALID,76,VALID,0,
2013-03-15, 10:42:04,VALID,921.137,VALID,0,VALID,87.8141,VALID,366.052,VALID,22.2193,VALID,159,VALID,0,
2013-03-15, 10:43:04,VALID,920.341,VALID,0,VALID,86.7773,VALID,364.548,VALID,22.2567,VALID,202,VALID,0,
2013-03-15, 10:44:04,VALID,920.528,VALID,0,VALID,86.1827,VALID,362.399,VALID,22.2779,VALID,230,VALID,0,
2013-03-15, 10:45:04,VALID,920.471,VALID,0,VALID,85.8168,VALID,359.391,VALID,22.2957,VALID,216,VALID,0,
2013-03-15, 10:46:04,VALID,920.813,VALID,0,VALID,86.3276,VALID,356.275,VALID,22.3754,VALID,195,VALID,0,
2013-03-15, 10:47:04,VALID,920.558,VALID,0,VALID,86.5868,VALID,351.762,VALID,22.3542,VALID,192,VALID,0,
2013-03-15, 10:48:04,VALID,920.572,VALID,0,VALID,85.7024,VALID,345.961,VALID,22.3754,VALID,199,VALID,0,
2013-03-15, 10:49:04,VALID,920.538,VALID,0,VALID,85.4966,VALID,338.977,VALID,22.3364,VALID,197,VALID,0,
2013-03-15, 10:50:04,VALID,920.509,VALID,0,VALID,86.7697,VALID,331.456,VALID,22.3542,VALID,186,VALID,0,
2013-03-15, 10:51:04,VALID,920.408,VALID,0,VALID,87.5016,VALID,323.29,VALID,22.4145,VALID,185,VALID,0,
2013-03-15, 10:52:04,VALID,920.445,VALID,0,VALID,87.5168,VALID,314.48,VALID,22.4535,VALID,189,VALID,0,
2013-03-15, 10:53:04,VALID,920.652,VALID,0,VALID,86.198,VALID,305.025,VALID,22.4323,VALID,208,VALID,0,
2013-03-15, 10:54:04,VALID,920.43,VALID,0,VALID,85.9998,VALID,295.678,VALID,22.4518,VALID,196,VALID,0,
2013-03-15, 10:55:04,VALID,920.746,VALID,0,VALID,85.8549,VALID,286.653,VALID,22.5121,VALID,195,VALID,0,
2013-03-15, 10:56:04,VALID,920.556,VALID,0,VALID,84.2692,VALID,277.95,VALID,22.5103,VALID,207,VALID,0,
2013-03-15, 10:57:04,VALID,920.537,VALID,0,VALID,84.6047,VALID,269.57,VALID,22.5103,VALID,212,VALID,0,
2013-03-15, 10:58:04,VALID,920.437,VALID,0,VALID,85.0849,VALID,262.049,VALID,22.5299,VALID,171,VALID,0,
2013-03-15, 10:59:04,VALID,920.628,VALID,0,VALID,84.5894,VALID,255.602,VALID,22.5884,VALID,202,VALID,0,
2013-03-15, 11:00:04,VALID,920.386,VALID,0,VALID,84.4827,VALID,249.908,VALID,22.6079,VALID,191,VALID,0,
2013-03-15, 11:01:04,VALID,920.449,VALID,0,VALID,84.437,VALID,244.644,VALID,22.6274,VALID,196,VALID,0,
2013-03-15, 11:02:04,VALID,920.286,VALID,0,VALID,84.8181,VALID,240.238,VALID,22.6665,VALID,244,VALID,0,
2013-03-15, 11:03:04,VALID,920.367,VALID,0,VALID,85.0697,VALID,236.585,VALID,22.7055,VALID,203,VALID,0,
2013-03-15, 11:04:04,VALID,920.299,VALID,0,VALID,86.6782,VALID,234.114,VALID,22.7072,VALID,257,VALID,0,
2013-03-15, 11:05:04,VALID,920.307,VALID,0,VALID,87.0899,VALID,233.685,VALID,22.647,VALID,245,VALID,0,
2013-03-15, 11:06:04,VALID,920.396,VALID,0,VALID,87.9437,VALID,234.329,VALID,22.5689,VALID,252,VALID,0,
2013-03-15, 11:07:04,VALID,920.38,VALID,0,VALID,88.7823,VALID,234.974,VALID,22.4501,VALID,267,VALID,0,
2013-03-15, 11:08:04,VALID,920.388,VALID,0,VALID,88.5155,VALID,235.296,VALID,22.3737,VALID,276,VALID,0,
2013-03-15, 11:09:04,VALID,920.367,VALID,0,VALID,88.8052,VALID,234.759,VALID,22.3737,VALID,271,VALID,0,
2013-03-15, 11:10:04,VALID,920.259,VALID,0,VALID,89.3236,VALID,232.503,VALID,22.3347,VALID,251,VALID,0,
2013-03-15, 11:11:04,VALID,920.325,VALID,0,VALID,89.4837,VALID,228.098,VALID,22.3542,VALID,251,VALID,0,
2013-03-15, 11:12:04,VALID,920.135,VALID,0,VALID,89.3007,VALID,226.593,VALID,22.3542,VALID,231,VALID,0,
2013-03-15, 11:13:04,VALID,920.234,VALID,0,VALID,88.8433,VALID,228.635,VALID,22.3347,VALID,258,VALID,0,
2013-03-15, 11:14:04,VALID,920.253,VALID,0,VALID,88.6603,VALID,229.924,VALID,22.2567,VALID,252,VALID,0,
2013-03-15, 11:15:04,VALID,920.263,VALID,0,VALID,89.4913,VALID,229.602,VALID,22.2957,VALID,252,VALID,0,
2013-03-15, 11:16:04,VALID,920.16,VALID,0,VALID,89.598,VALID,229.279,VALID,22.2957,VALID,209,VALID,0,
2013-03-15, 11:17:04,VALID,920.188,VALID,0,VALID,89.3007,VALID,228.42,VALID,22.3152,VALID,192,VALID,0,
2013-03-15, 11:18:04,VALID,920.08,VALID,0,VALID,89.7124,VALID,227.345,VALID,22.3737,VALID,203,VALID,0,
2013-03-15, 11:19:04,VALID,920.232,VALID,0,VALID,90.124,VALID,225.412,VALID,22.4323,VALID,198,VALID,0,
2013-03-15, 11:20:04,VALID,920.18,VALID,0,VALID,89.7886,VALID,224.015,VALID,22.4908,VALID,208,VALID,0,
2013-03-15, 11:21:04,VALID,920.226,VALID,0,VALID,88.0047,VALID,224.767,VALID,22.4713,VALID,235,VALID,0,
2013-03-15, 11:22:04,VALID,920.019,VALID,0,VALID,88.3554,VALID,226.271,VALID,22.4128,VALID,224,VALID,0,
2013-03-15, 11:23:04,VALID,920.148,VALID,0,VALID,87.9513,VALID,228.312,VALID,22.3542,VALID,243,VALID,0,
2013-03-15, 11:24:04,VALID,920.073,VALID,0,VALID,88.7975,VALID,231.321,VALID,22.3347,VALID,234,VALID,0,
2013-03-15, 11:25:04,VALID,920.022,VALID,0,VALID,88.7747,VALID,234.222,VALID,22.2957,VALID,256,VALID,0,
2013-03-15, 11:26:04,VALID,919.994,VALID,0,VALID,89.2321,VALID,236.8,VALID,22.2957,VALID,233,VALID,0,
2013-03-15, 11:27:04,VALID,919.929,VALID,0,VALID,89.0644,VALID,238.949,VALID,22.3347,VALID,198,VALID,0,
2013-03-15, 11:28:04,VALID,920,VALID,0,VALID,88.5841,VALID,240.883,VALID,22.3542,VALID,209,VALID,0,
2013-03-15, 11:29:04,VALID,919.951,VALID,0,VALID,88.6146,VALID,238.734,VALID,22.4128,VALID,199,VALID,0,
2013-03-15, 11:30:04,VALID,919.973,VALID,0,VALID,88.5993,VALID,233.899,VALID,22.4518,VALID,213,VALID,0,
2013-03-15, 11:31:04,VALID,919.959,VALID,0,VALID,87.8294,VALID,226.271,VALID,22.4908,VALID,200,VALID,0,
2013-03-15, 11:32:04,VALID,919.867,VALID,0,VALID,87.898,VALID,235.404,VALID,22.5299,VALID,186,VALID,0,
2013-03-15, 11:33:04,VALID,919.837,VALID,0,VALID,88.485,VALID,243.784,VALID,22.5689,VALID,194,VALID,0,
2013-03-15, 11:34:04,VALID,919.938,VALID,0,VALID,86.5868,VALID,245.933,VALID,22.4908,VALID,170,VALID,0,
2013-03-15, 11:35:04,VALID,919.808,VALID,0,VALID,86.8231,VALID,244.429,VALID,22.4518,VALID,148,VALID,0,
2013-03-15, 11:36:04,VALID,919.729,VALID,0,VALID,85.8473,VALID,242.065,VALID,22.372,VALID,103,VALID,0,
2013-03-15, 11:37:04,VALID,919.819,VALID,0,VALID,87.9437,VALID,240.024,VALID,22.3933,VALID,205,VALID,0,
2013-03-15, 11:38:04,VALID,919.868,VALID,0,VALID,87.3415,VALID,238.412,VALID,22.3737,VALID,165,VALID,0,
2013-03-15, 11:39:04,VALID,919.802,VALID,0,VALID,86.8383,VALID,237.23,VALID,22.3542,VALID,174,VALID,0,
2013-03-15, 11:40:04,VALID,919.772,VALID,0,VALID,86.9527,VALID,236.693,VALID,22.3542,VALID,160,VALID,0,
2013-03-15, 11:41:04,VALID,919.702,VALID,0,VALID,88.2334,VALID,236.908,VALID,22.3542,VALID,169,VALID,0,
2013-03-15, 11:42:04,VALID,919.663,VALID,0,VALID,88.3249,VALID,238.197,VALID,22.4128,VALID,121,VALID,0,
2013-03-15, 11:43:04,VALID,919.891,VALID,0,VALID,86.9679,VALID,239.271,VALID,22.3737,VALID,164,VALID,0,
2013-03-15, 11:44:04,VALID,919.756,VALID,0,VALID,86.1065,VALID,240.346,VALID,22.3542,VALID,163,VALID,0,
2013-03-15, 11:45:04,VALID,919.816,VALID,0,VALID,85.7787,VALID,240.991,VALID,22.3347,VALID,129,VALID,0,
2013-03-15, 11:46:04,VALID,919.703,VALID,0,VALID,86.8078,VALID,240.131,VALID,22.2762,VALID,141,VALID,0,
2013-03-15, 11:47:04,VALID,919.647,VALID,0,VALID,87.9209,VALID,238.412,VALID,22.3347,VALID,124,VALID,0,
2013-03-15, 11:48:04,VALID,919.695,VALID,0,VALID,87.25,VALID,236.048,VALID,22.3933,VALID,147,VALID,0,
2013-03-15, 11:49:04,VALID,919.555,VALID,0,VALID,86.8764,VALID,233.04,VALID,22.3933,VALID,160,VALID,0,
2013-03-15, 11:50:04,VALID,919.516,VALID,0,VALID,86.8231,VALID,229.494,VALID,22.4323,VALID,209,VALID,0,
2013-03-15, 11:51:04,VALID,919.654,VALID,0,VALID,85.771,VALID,225.949,VALID,22.3933,VALID,148,VALID,0,
2013-03-15, 11:52:04,VALID,919.496,VALID,0,VALID,87.189,VALID,222.618,VALID,22.4518,VALID,188,VALID,0,
2013-03-15, 11:53:04,VALID,919.559,VALID,0,VALID,86.4038,VALID,219.825,VALID,22.4323,VALID,167,VALID,0,
2013-03-15, 11:54:04,VALID,919.567,VALID,0,VALID,86.2208,VALID,217.461,VALID,22.3933,VALID,170,VALID,0,
2013-03-15, 11:55:04,VALID,919.43,VALID,0,VALID,86.9374,VALID,215.742,VALID,22.3933,VALID,205,VALID,0,
2013-03-15, 11:56:04,VALID,919.526,VALID,0,VALID,86.7545,VALID,214.882,VALID,22.4323,VALID,175,VALID,0,
2013-03-15, 11:57:04,VALID,919.471,VALID,0,VALID,87.9895,VALID,214.775,VALID,22.4908,VALID,155,VALID,0,
2013-03-15, 11:58:04,VALID,919.736,VALID,0,VALID,86.9908,VALID,215.205,VALID,22.5494,VALID,160,VALID,0,
2013-03-15, 11:59:04,VALID,919.82,VALID,0,VALID,86.4114,VALID,216.172,VALID,22.5103,VALID,161,VALID,0,
2013-03-15, 12:00:04,VALID,919.46,VALID,0,VALID,86.7164,VALID,217.139,VALID,22.5299,VALID,181,VALID,0,
2013-03-15, 12:01:04,VALID,919.542,VALID,0,VALID,85.6567,VALID,218.213,VALID,22.5103,VALID,160,VALID,0,
2013-03-15, 12:02:04,VALID,919.595,VALID,0,VALID,87.2424,VALID,218.965,VALID,22.4908,VALID,189,VALID,0,
2013-03-15, 12:03:04,VALID,919.301,VALID,0,VALID,87.0594,VALID,219.717,VALID,22.4908,VALID,184,VALID,0,
2013-03-15, 12:04:04,VALID,919.428,VALID,0,VALID,86.6096,VALID,220.469,VALID,22.4908,VALID,186,VALID,0,
2013-03-15, 12:05:04,VALID,919.316,VALID,0,VALID,86.9374,VALID,221.329,VALID,22.4323,VALID,158,VALID,0,
2013-03-15, 12:06:04,VALID,919.234,VALID,0,VALID,85.3823,VALID,222.618,VALID,22.4128,VALID,131,VALID,0,
2013-03-15, 12:07:04,VALID,919.284,VALID,0,VALID,85.9083,VALID,224.659,VALID,22.3347,VALID,189,VALID,0,
2013-03-15, 12:08:04,VALID,919.332,VALID,0,VALID,85.7634,VALID,227.453,VALID,22.2957,VALID,83,VALID,0,
2013-03-15, 12:09:04,VALID,919.362,VALID,0,VALID,87.0442,VALID,231.106,VALID,22.2762,VALID,177,VALID,0,
2013-03-15, 12:10:04,VALID,919.315,VALID,0,VALID,85.306,VALID,234.866,VALID,22.1981,VALID,164,VALID,0,
2013-03-15, 12:11:04,VALID,919.236,VALID,0,VALID,85.8702,VALID,238.412,VALID,22.2388,VALID,161,VALID,0,
2013-03-15, 12:12:04,VALID,919.084,VALID,0,VALID,86.1903,VALID,241.528,VALID,22.2176,VALID,169,VALID,0,
2013-03-15, 12:13:04,VALID,919.057,VALID,0,VALID,87.3491,VALID,243.999,VALID,22.2762,VALID,122,VALID,0,
2013-03-15, 12:14:04,VALID,919.202,VALID,0,VALID,87.5473,VALID,245.933,VALID,22.3347,VALID,156,VALID,0,
2013-03-15, 12:15:04,VALID,919.234,VALID,0,VALID,86.5563,VALID,247.007,VALID,22.3542,VALID,171,VALID,0,
2013-03-15, 12:16:04,VALID,918.922,VALID,0,VALID,85.7406,VALID,247.974,VALID,22.3542,VALID,143,VALID,0,
2013-03-15, 12:17:04,VALID,919.141,VALID,0,VALID,85.3365,VALID,248.189,VALID,22.3152,VALID,176,VALID,0,
2013-03-15, 12:18:04,VALID,919.043,VALID,0,VALID,86.9756,VALID,248.082,VALID,22.2371,VALID,134,VALID,0,
2013-03-15, 12:19:04,VALID,919.152,VALID,0,VALID,87.1204,VALID,247.544,VALID,22.3169,VALID,167,VALID,0,
2013-03-15, 12:20:04,VALID,919.256,VALID,0,VALID,85.6033,VALID,246.9,VALID,22.2957,VALID,157,VALID,0,
2013-03-15, 12:21:04,VALID,919.075,VALID,0,VALID,84.2692,VALID,246.47,VALID,22.2762,VALID,146,VALID,0,
2013-03-15, 12:22:04,VALID,918.882,VALID,0,VALID,85.55,VALID,246.04,VALID,22.1981,VALID,133,VALID,0,
2013-03-15, 12:23:04,VALID,918.933,VALID,0,VALID,85.8473,VALID,246.363,VALID,22.1981,VALID,149,VALID,0,
2013-03-15, 12:24:04,VALID,919.159,VALID,0,VALID,84.9706,VALID,247.007,VALID,22.1396,VALID,158,VALID,0,
2013-03-15, 12:25:04,VALID,918.945,VALID,0,VALID,85.6033,VALID,248.404,VALID,22.1396,VALID,130,VALID,0,
2013-03-15, 12:26:04,VALID,918.889,VALID,0,VALID,84.6657,VALID,250.23,VALID,22.0989,VALID,138,VALID,0,
2013-03-15, 12:27:04,VALID,919.087,VALID,0,VALID,84.6352,VALID,252.487,VALID,22.1217,VALID,160,VALID,0,
2013-03-15, 12:28:04,VALID,918.889,VALID,0,VALID,84.5056,VALID,254.85,VALID,22.1005,VALID,168,VALID,0,
2013-03-15, 12:29:04,VALID,918.983,VALID,0,VALID,85.0849,VALID,257.322,VALID,22.1591,VALID,132,VALID,0,
2013-03-15, 12:30:04,VALID,918.861,VALID,0,VALID,85.8549,VALID,259.578,VALID,22.1786,VALID,91,VALID,0,
2013-03-15, 12:31:04,VALID,918.871,VALID,0,VALID,84.6809,VALID,261.834,VALID,22.1786,VALID,143,VALID,0,
2013-03-15, 12:32:04,VALID,919.006,VALID,0,VALID,83.8347,VALID,263.875,VALID,22.1201,VALID,131,VALID,0,
2013-03-15, 12:33:04,VALID,918.93,VALID,0,VALID,84.4979,VALID,265.487,VALID,22.1591,VALID,153,VALID,0,
2013-03-15, 12:34:04,VALID,918.777,VALID,0,VALID,83.3697,VALID,267.099,VALID,22.1786,VALID,181,VALID,0,
2013-03-15, 12:35:04,VALID,918.791,VALID,0,VALID,84.4903,VALID,269.033,VALID,22.2957,VALID,174,VALID,0,
2013-03-15, 12:36:04,VALID,918.813,VALID,0,VALID,84.1091,VALID,270.537,VALID,22.3152,VALID,184,VALID,0,
2013-03-15, 12:37:04,VALID,918.69,VALID,0,VALID,83.6289,VALID,272.148,VALID,22.3347,VALID,161,VALID,0,
2013-03-15, 12:38:04,VALID,918.872,VALID,0,VALID,83.4307,VALID,273.76,VALID,22.3737,VALID,161,VALID,0,
2013-03-15, 12:39:04,VALID,918.775,VALID,0,VALID,83.3316,VALID,275.157,VALID,22.4323,VALID,160,VALID,0,
2013-03-15, 12:40:04,VALID,918.595,VALID,0,VALID,83.3239,VALID,276.124,VALID,22.5299,VALID,174,VALID,0,
2013-03-15, 12:41:04,VALID,918.683,VALID,0,VALID,83.2096,VALID,276.124,VALID,22.5477,VALID,153,VALID,0,
2013-03-15, 12:42:04,VALID,918.663,VALID,0,VALID,84.5894,VALID,275.049,VALID,22.5901,VALID,166,VALID,0,
2013-03-15, 12:43:04,VALID,918.667,VALID,0,VALID,82.897,VALID,273.33,VALID,22.6274,VALID,127,VALID,0,
2013-03-15, 12:44:04,VALID,918.649,VALID,0,VALID,83.6136,VALID,270.429,VALID,22.5494,VALID,117,VALID,0,
2013-03-15, 12:45:04,VALID,918.557,VALID,0,VALID,83.0038,VALID,266.669,VALID,22.5103,VALID,117,VALID,0,
2013-03-15, 12:46:04,VALID,918.587,VALID,0,VALID,84.0253,VALID,262.371,VALID,22.5299,VALID,157,VALID,0,
2013-03-15, 12:47:04,VALID,918.64,VALID,0,VALID,81.8069,VALID,258.181,VALID,22.5494,VALID,145,VALID,0,
2013-03-15, 12:48:04,VALID,918.692,VALID,0,VALID,82.4091,VALID,253.454,VALID,22.5299,VALID,154,VALID,0,
2013-03-15, 12:49:04,VALID,918.455,VALID,0,VALID,81.7154,VALID,249.478,VALID,22.5299,VALID,157,VALID,0,
2013-03-15, 12:50:04,VALID,918.591,VALID,0,VALID,82.6455,VALID,246.04,VALID,22.5689,VALID,144,VALID,0,
2013-03-15, 12:51:04,VALID,918.662,VALID,0,VALID,82.7598,VALID,242.71,VALID,22.6682,VALID,145,VALID,0,
2013-03-15, 12:52:04,VALID,918.539,VALID,0,VALID,82.1118,VALID,239.701,VALID,22.5884,VALID,118,VALID,0,
2013-03-15, 12:53:04,VALID,918.422,VALID,0,VALID,81.7459,VALID,236.693,VALID,22.6096,VALID,152,VALID,0,
2013-03-15, 12:54:04,VALID,918.374,VALID,0,VALID,81.4562,VALID,233.47,VALID,22.5477,VALID,133,VALID,0,
2013-03-15, 12:55:04,VALID,918.599,VALID,0,VALID,81.9975,VALID,230.354,VALID,22.5103,VALID,137,VALID,0,
2013-03-15, 12:56:04,VALID,918.465,VALID,0,VALID,81.4943,VALID,227.023,VALID,22.5299,VALID,154,VALID,0,
2013-03-15, 12:57:04,VALID,918.692,VALID,0,VALID,81.3876,VALID,223.478,VALID,22.5884,VALID,162,VALID,0,
2013-03-15, 12:58:04,VALID,918.587,VALID,0,VALID,81.4714,VALID,220.039,VALID,22.6062,VALID,116,VALID,0,
2013-03-15, 12:59:04,VALID,918.529,VALID,0,VALID,81.3495,VALID,216.386,VALID,22.5689,VALID,120,VALID,0,
2013-03-15, 13:00:04,VALID,918.486,VALID,0,VALID,80.5643,VALID,212.733,VALID,22.5494,VALID,155,VALID,0,
2013-03-15, 13:01:04,VALID,918.478,VALID,0,VALID,82.0813,VALID,209.618,VALID,22.5494,VALID,120,VALID,0,